CFG2WG LEBL-LEPA

Flight info

Callsign CFG2WG
Flight time N/A
Altitude 34000
Route OLOXO DCT OKABI DCT TOU DCT ADABI DCT BOKNO DCT DIBES DCT VIQAQ DCT TSU DCT LEQOS DCT CTL DCT ARDEN/N0439F350 DCT KOMOB T859 NVO T857 BIKMU BIKMU1A
Aircraft A21N/M-SDE2E3FGHIRWXY/LB1

Departure

Time 2026-05-04 20:04
Airport Josep Tarradellas Barcelona-El Prat Airport (LEBL)

Arrival

Time N/A
Airport Palma de Mallorca Airport (LEPA)
Time Latitude Longitude Altitude Speed Heading
2026-05-04 19:54 42.10090 1.75662 20016 ft 432 kts 79°
2026-05-04 19:55 42.10654 1.79640 19920 ft 431 kts 84°
2026-05-04 19:55 42.10767 1.83625 19900 ft 426 kts 97°
2026-05-04 19:55 42.10163 1.87538 19905 ft 420 kts 112°
2026-05-04 19:55 42.09024 1.91065 19717 ft 408 kts 120°
2026-05-04 19:56 42.07749 1.94418 19186 ft 401 kts 121°
2026-05-04 19:56 42.06444 1.97739 18602 ft 398 kts 122°
2026-05-04 19:56 42.05139 2.01026 17963 ft 395 kts 122°
2026-05-04 19:56 42.03865 2.04222 17287 ft 392 kts 122°
2026-05-04 19:57 42.02573 2.07449 16628 ft 390 kts 122°
2026-05-04 19:57 42.01279 2.10661 15951 ft 387 kts 122°
2026-05-04 19:57 42.00058 2.13672 15375 ft 385 kts 122°
2026-05-04 19:57 41.98777 2.16815 14736 ft 383 kts 122°
2026-05-04 19:58 41.97489 2.19955 14120 ft 381 kts 122°
2026-05-04 19:58 41.96204 2.23069 13475 ft 379 kts 122°
2026-05-04 19:58 41.94930 2.26167 12793 ft 377 kts 123°
2026-05-04 19:58 41.93310 2.28870 12123 ft 368 kts 142°
2026-05-04 19:59 41.91218 2.30683 11480 ft 359 kts 157°
2026-05-04 19:59 41.88946 2.32029 10945 ft 353 kts 161°
2026-05-04 19:59 41.86704 2.33245 10659 ft 342 kts 162°
2026-05-04 19:59 41.84531 2.34411 10438 ft 328 kts 162°
2026-05-04 20:00 41.82458 2.35540 10208 ft 311 kts 162°
2026-05-04 20:00 41.80531 2.36608 10063 ft 296 kts 162°
2026-05-04 20:00 41.78633 2.37652 9894 ft 286 kts 162°
2026-05-04 20:00 41.76821 2.38652 9521 ft 283 kts 162°
2026-05-04 20:01 41.74998 2.39654 9089 ft 282 kts 162°
2026-05-04 20:01 41.73183 2.40664 8653 ft 279 kts 162°
2026-05-04 20:01 41.71392 2.41657 8180 ft 279 kts 162°
2026-05-04 20:01 41.69610 2.42645 7939 ft 280 kts 162°
2026-05-04 20:02 41.67817 2.43641 7895 ft 280 kts 162°
2026-05-04 20:02 41.66030 2.44632 7901 ft 279 kts 162°
2026-05-04 20:02 41.64225 2.45626 7923 ft 278 kts 164°
2026-05-04 20:02 41.62337 2.46061 7915 ft 270 kts 187°
2026-05-04 20:03 41.60521 2.45678 7864 ft 265 kts 195°
2026-05-04 20:03 41.58744 2.45135 7482 ft 263 kts 197°
2026-05-04 20:03 41.56953 2.44561 6999 ft 264 kts 197°
2026-05-04 20:03 41.55174 2.43987 6588 ft 263 kts 197°
2026-05-04 20:04 41.53386 2.43416 6167 ft 262 kts 197°
2026-05-04 20:04 41.51621 2.42863 5738 ft 262 kts 197°
2026-05-04 20:04 41.49855 2.42310 5412 ft 257 kts 197°
2026-05-04 20:04 41.48141 2.41776 5243 ft 246 kts 197°
2026-05-04 20:05 41.46505 2.41267 5061 ft 236 kts 197°
2026-05-04 20:05 41.44935 2.40781 4826 ft 228 kts 197°
2026-05-04 20:05 41.43416 2.40321 4639 ft 217 kts 197°
2026-05-04 20:05 41.41972 2.39889 4369 ft 209 kts 199°
2026-05-04 20:06 41.40741 2.39031 4053 ft 200 kts 228°
2026-05-04 20:06 41.39913 2.37545 3991 ft 200 kts 241°
2026-05-04 20:06 41.39287 2.35894 3975 ft 201 kts 247°
2026-05-04 20:06 41.38720 2.34206 3854 ft 201 kts 246°
2026-05-04 20:07 41.38145 2.32519 3613 ft 199 kts 246°
2026-05-04 20:07 41.37570 2.30834 3393 ft 198 kts 246°
2026-05-04 20:07 41.37007 2.29190 3142 ft 192 kts 246°
2026-05-04 20:07 41.36473 2.27626 2955 ft 181 kts 247°
2026-05-04 20:08 41.35960 2.26123 2689 ft 174 kts 246°
2026-05-04 20:08 41.35464 2.24672 2423 ft 168 kts 247°
2026-05-04 20:08 41.34995 2.23302 2171 ft 159 kts 247°
2026-05-04 20:08 41.34551 2.22002 1950 ft 154 kts 246°
2026-05-04 20:09 41.34116 2.20730 1823 ft 141 kts 246°
2026-05-04 20:09 41.33719 2.19568 1612 ft 135 kts 247°
2026-05-04 20:09 41.33327 2.18423 1419 ft 139 kts 246°
2026-05-04 20:09 41.32931 2.17263 1239 ft 138 kts 245°
2026-05-04 20:10 41.32539 2.16103 1050 ft 137 kts 245°
2026-05-04 20:10 41.32139 2.14962 827 ft 134 kts 246°
2026-05-04 20:10 41.31738 2.13830 588 ft 136 kts 246°
2026-05-04 20:10 41.31356 2.12687 431 ft 135 kts 246°
2026-05-04 20:11 41.30965 2.11550 247 ft 134 kts 245°
2026-05-04 20:11 41.30586 2.10428 70 ft 136 kts 246°
2026-05-04 20:11 41.30207 2.09307 31 ft 124 kts 246°
2026-05-04 20:11 41.29893 2.08386 30 ft 85 kts 247°
2026-05-04 20:12 41.29733 2.07999 22 ft 26 kts 230°
2026-05-04 20:12 41.29603 2.07837 21 ft 24 kts 216°
2026-05-04 20:12 41.29557 2.07792 21 ft 0 kts 214°